Location: Bastelaar
(51.0950°N, 3.8602°E)
Time: 17:29:02
(UTC+00:00)

Cosmos 2151 Rocket - Pass Details

Date: 18 November 2025
Orbit: 612 x 636 km, 82.5° (Epoch: 09 December)

Event Time Altitude Azimuth Distance (km) Brightness Sun altitude
Rises 17:54:16 0° 185° (S) 2,919 7.2 -18.8°
Reaches altitude 10° 17:56:30 10° 185° (S) 2,017 6.3 -19.1°
Maximum altitude 18:00:58 80° 99° (E) 652 3.5 -19.8°
Enters shadow 18:05:04 13° 13° (NNE) 1,861 5.8 -20.4°
